EW9798 Weather Reports


Display with metric or nautical units.
time (UTC)temp
F
wind
direction
speed
MPH
gust
MPH
rain 1hr
in
rain 24hr
in
rain mn
in
humidity
%
barometer
mb
20260904013031 58 337 1.0 6.0 0.00 0.16 0.01 79 1012.0
20260904011530 59 349 2.0 6.0 0.00 0.16 0.01 77 1011.8
20260904010033 60 345 0.0 5.0 0.00 0.16 0.01 75 1011.8
20260904003031 60 3 4.0 8.0 0.00 0.19 0.01 76 1011.6
20260904001607 60 21 4.0 10.0 0.00 0.19 0.01 79 1011.8
20260904000032 59 25 3.0 11.0 0.00 0.20 0.01 81 1012.0
20260903233030 58 38 4.0 9.0 0.00 0.21 0.01 77 1012.1
20260903231531 59 11 6.0 15.0 0.00 0.21 0.01 75 1012.1
20260903230032 59 24 7.0 15.0 0.00 0.22 0.01 74 1012.1
20260903224531 61 27 5.0 8.0 0.00 0.22 0.01 72 1012.1
20260903223035 62 13 5.0 11.0 0.00 0.22 0.01 71 1012.0
20260903221529 62 350 5.0 13.0 0.00 0.22 0.01 70 1011.9
20260903220029 62 323 7.0 14.0 0.00 0.23 0.01 66 1011.6
20260903214530 64 340 3.0 7.0 0.00 0.24 0.01 65 1011.4
20260903213032 64 56 0.0 5.0 0.00 0.24 0.01 65 1011.5
20260903211532 65 21 2.0 6.0 0.00 0.25 0.01 66 1011.6
20260903210031 64 307 1.0 7.0 0.00 0.27 0.01 67 1011.7
20260903204530 63 15 3.0 8.0 0.00 0.28 0.01 69 1011.7
20260903203043 64 318 2.0 6.0 0.00 0.28 0.01 67 1011.8
20260903194601 64 338 3.0 8.0 0.00 0.30 0.01 77 1012.4
20260903191531 59 72 0.0 4.0 0.00 0.32 0.01 85 1012.9
20260903190106 58 157 0.0 2.0 0.00 0.32 0.01 85 1013.1
20260903183038 58 49 1.0 4.0 0.00 0.32 0.01 92 1013.2
20260903181533 56 312 1.0 5.0 0.00 0.32 0.01 95 1013.4
20260903180031 55 335 0.0 4.0 0.00 0.32 0.01 97 1013.4
20260903174529 55 15 1.0 6.0 0.00 0.32 0.01 99 1013.3
20260903173106 54 284 1.0 3.0 0.00 0.32 0.01 99 1013.4
20260903171531 53 8 0.0 2.0 0.00 0.32 0.01 99 1013.4
20260903170030 52 350 0.0 0.0 0.00 0.32 0.01 99 1013.6
20260903163031 51 127 0.0 2.0 0.00 0.32 0.01 99 1013.5
20260903160038 50 73 0.0 2.0 0.00 0.32 0.01 99 1013.6
20260903154530 50 301 1.0 8.0 0.00 0.32 0.01 99 1013.5
20260903153039 50 108 0.0 4.0 0.00 0.32 0.01 99 1013.5
20260903150030 49 130 0.0 0.0 0.00 0.32 0.01 99 1013.5
20260903143030 48 317 0.0 0.0 0.00 0.32 0.01 99 1013.3
20260903141532 47 29 0.0 3.0 0.00 0.32 0.01 99 1013.2
20260903140106 47 150 0.0 3.0 0.00 0.32 0.01 99 1013.0
20260903134528 47 173 0.0 3.0 0.00 0.32 0.01 99 1012.9
20260903133031 47 207 0.0 2.0 0.00 0.32 0.01 99 1012.9
20260903131530 46 244 0.0 3.0 0.00 0.32 0.01 99 1012.7
20260903130029 47 268 0.0 2.0 0.00 0.32 0.01 99 1012.7
20260903124529 46 139 0.0 3.0 0.00 0.32 0.01 98 1012.7
20260903123030 46 153 0.0 3.0 0.00 0.32 0.01 98 1012.8
20260903120031 47 170 0.0 4.0 0.00 0.32 0.01 98 1012.7
20260903113030 47 155 0.0 4.0 0.01 0.32 0.01 98 1012.7
20260903111530 47 149 1.0 4.0 0.01 0.32 0.01 98 1012.6
20260903110030 47 132 2.0 5.0 0.01 0.32 0.00 98 1012.5
20260903104532 48 135 1.0 4.0 0.00 0.31 0.00 98 1012.4
20260903103032 49 145 0.0 3.0 0.00 0.31 0.00 98 1012.3
20260903100031 50 137 1.0 3.0 0.00 0.31 0.00 98 1012.2
20260903094532 50 177 0.0 2.0 0.00 0.31 0.00 98 1012.2
20260903093107 50 97 0.0 1.0 0.00 0.31 0.00 98 1012.2
20260903091531 50 90 0.0 3.0 0.00 0.31 0.00 98 1012.2
20260903090106 50 17 1.0 4.0 0.00 0.31 0.00 98 1012.2
20260903084529 50 138 1.0 4.0 0.00 0.31 0.00 98 1012.1
20260903083030 50 128 2.0 4.0 0.00 0.31 0.00 98 1012.1
20260903081607 50 24 0.0 3.0 0.00 0.31 0.00 98 1012.0
20260903080029 50 138 1.0 4.0 0.00 0.31 0.00 97 1012.0
20260903074532 49 115 2.0 6.0 0.00 0.31 0.00 97 1011.9
20260903073105 49 201 1.0 4.0 0.00 0.31 0.00 97 1011.5
20260903071529 50 177 0.0 3.0 0.00 0.31 0.00 97 1011.5
20260903064529 51 49 0.0 3.0 0.00 0.31 0.31 97 1011.7
20260903063145 51 33 0.0 3.0 0.00 0.31 0.31 97 1011.6
20260903061606 51 101 0.0 3.0 0.00 0.31 0.31 97 1011.7
20260903060030 51 147 1.0 4.0 0.00 0.31 0.31 97 1011.7
20260903053030 53 285 1.0 5.0 0.00 0.31 0.31 96 1011.4
20260903051531 53 166 1.0 3.0 0.00 0.31 0.31 95 1011.4
20260903050030 53 198 0.0 3.0 0.00 0.31 0.31 95 1011.4
20260903044530 54 134 4.0 6.0 0.00 0.31 0.31 95 1011.2
20260903043029 55 114 3.0 7.0 0.00 0.31 0.31 95 1011.0
20260903041531 55 158 3.0 7.0 0.00 0.31 0.31 96 1010.8
20260903040029 55 167 2.0 5.0 0.00 0.31 0.31 97 1010.5
20260903034606 56 128 1.0 4.0 0.01 0.31 0.31 96 1010.4
20260903033031 56 133 0.0 1.0 0.05 0.31 0.31 96 1010.3
20260903031532 56 49 1.0 5.0 0.07 0.31 0.31 96 1010.3
20260903030032 57 36 1.0 4.0 0.11 0.31 0.30 96 1010.0
20260903024536 58 160 0.0 3.0 0.14 0.30 0.26 96 1010.1
20260903023030 58 254 0.0 2.0 0.10 0.26 0.24 96 1010.1
20260903020030 58 310 0.0 4.0 0.04 0.20 0.16 95 1009.6
20260903014607 58 39 0.0 2.0 0.02 0.16 0.16 95 1009.3